Weather History for KSAV - December, 2011

Change the Weather History Date:

Sunday, December 25, 2011

  Actual Average Record
Temperature  
Mean Temperature 56 °F 50 °F  
Max Temperature 64 °F 61 °F 80 °F (1984)
Min Temperature 48 °F 39 °F 10 °F (1983)
Degree Days  
Heating Degree Days 9 15  
Month to date heating degree days 221 329  
Since 1 July heating degree days 481 596  
Cooling Degree Days 0 0  
Month to date cooling degree days 9 3  
Year to date cooling degree days 2829 2452  
Growing Degree Days 6 (Base 50)    
Moisture  
Dew Point 50 °F    
Average Humidity 79    
Maximum Humidity 93    
Minimum Humidity 64    
Precipitation  
Precipitation 0.30 in 0.10 in 1.92 in (1873)
Month to date precipitation 0.99 2.35  
Year to date precipitation 34.69 47.36  
Snow  
Snow 0.00 in 0.00 in - ()
Month to date snowfall 0.0  
Since 1 July snowfall 0.0 0.1  
Snow Depth 0.00 in    
Sea Level Pressure  
Sea Level Pressure 30.30 in    
Wind  
Wind Speed 5 mph (North)    
Max Wind Speed 13 mph    
Max Gust Speed 17 mph    
Visibility 6 miles    
Events Rain    
T = Trace of Precipitation, MM = Missing Value Source: NWS Daily Summary

Daily Weather History Graph

Daily Weather History Graph

Search for Another Location

Airport or City:

Trip Planner

Search our weather history database for the weather conditions in past years. The results will help you decide how hot, cold, wet, or windy it might be!

Date:

Astronomy

Dec. 25, 2011 Rise Set
Actual Time 7:23 AM EST 5:26 PM EST
Civil Twilight 6:56 AM EST 5:53 PM EST
Nautical Twilight 6:25 AM EST 6:24 PM EST
Astronomical Twilight 5:55 AM EST 6:53 PM EST
Moon 8:02 AM EST (12/25) 6:42 PM EST (12/25)
Length of Visible Light 10h 57m
Length of Day
10h 03m
New Moon, 1% of the Moon is Illuminated
Dec 25
New Moon
Jan 1
First Quarter
Jan 9
Full
Jan 16
Last Quarter
Jan 23
New

Hourly Weather History & Observations

Time (EST) Temp. Dew Point Humidity Pressure Visibility Wind Dir Wind Speed Gust Speed Precip Events Conditions
12:53 AM 50.0 °F 46.0 °F 86% 30.36 in 10.0 mi NE 8.1 mph - N/A   Clear
1:53 AM 48.9 °F 45.0 °F 86% 30.35 in 10.0 mi NNE 5.8 mph - N/A   Clear
2:53 AM 50.0 °F 45.0 °F 83% 30.35 in 10.0 mi NNE 6.9 mph - N/A   Clear
3:53 AM 50.0 °F 45.0 °F 83% 30.34 in 10.0 mi NNE 6.9 mph - N/A   Clear
4:53 AM 48.9 °F 44.1 °F 83% 30.33 in 10.0 mi NE 6.9 mph - N/A   Clear
5:53 AM 48.9 °F 43.0 °F 80% 30.34 in 10.0 mi NNE 4.6 mph - N/A   Scattered Clouds
6:53 AM 48.0 °F 43.0 °F 83% 30.34 in 10.0 mi ENE 5.8 mph - N/A   Mostly Cloudy
7:53 AM 50.0 °F 44.1 °F 80% 30.34 in 10.0 mi NE 5.8 mph - N/A   Mostly Cloudy
8:53 AM 52.0 °F 45.0 °F 77% 30.35 in 10.0 mi ENE 4.6 mph - N/A   Mostly Cloudy
9:53 AM 55.0 °F 46.0 °F 72% 30.35 in 10.0 mi ENE 4.6 mph - N/A   Overcast
10:53 AM 60.1 °F 48.9 °F 67% 30.34 in 10.0 mi ENE 5.8 mph - N/A   Mostly Cloudy
11:53 AM 62.1 °F 51.1 °F 67% 30.33 in 10.0 mi Calm Calm - N/A   Mostly Cloudy
12:45 PM 62.6 °F 53.6 °F 72% 30.30 in 10.0 mi North 4.6 mph - N/A   Overcast
12:53 PM 63.0 °F 53.1 °F 70% 30.30 in 10.0 mi NNE 4.6 mph - N/A   Overcast
1:41 PM 62.6 °F 51.8 °F 68% 30.27 in 10.0 mi North 8.1 mph - N/A   Overcast
1:53 PM 61.0 °F 51.1 °F 70% 30.27 in 10.0 mi North 9.2 mph - N/A   Overcast
2:00 PM 60.8 °F 51.8 °F 72% 30.27 in 10.0 mi North 8.1 mph - N/A   Overcast
2:53 PM 57.9 °F 50.0 °F 75% 30.26 in 10.0 mi North 8.1 mph - N/A   Overcast
3:53 PM 54.0 °F 48.9 °F 83% 30.27 in 10.0 mi North 11.5 mph - 0.00 in   Overcast
4:06 PM 53.6 °F 48.2 °F 82% 30.27 in 10.0 mi North 11.5 mph - N/A   Overcast
4:53 PM 54.0 °F 51.1 °F 90% 30.27 in 3.0 mi Calm Calm - 0.05 in Rain Heavy Rain
5:06 PM 53.6 °F 51.8 °F 94% 30.27 in 1.0 mi North 4.6 mph - 0.05 in Rain Rain
5:25 PM 53.6 °F 51.8 °F 94% 30.27 in 2.0 mi NNW 4.6 mph - 0.07 in Rain Light Rain
5:53 PM 54.0 °F 51.1 °F 90% 30.29 in 3.0 mi NNW 5.8 mph - 0.08 in Rain Light Rain
6:00 PM 53.6 °F 51.8 °F 94% 30.29 in 2.0 mi North 5.8 mph - 0.01 in Rain Light Rain
6:21 PM 53.6 °F 51.8 °F 94% 30.30 in 1.5 mi NNW 5.8 mph - 0.03 in Rain Rain
6:53 PM 53.1 °F 51.1 °F 93% 30.30 in 1.5 mi Calm Calm - 0.11 in Rain Heavy Rain
7:15 PM 53.6 °F 51.8 °F 94% 30.30 in 2.5 mi Calm Calm - 0.02 in Rain Light Rain
7:47 PM 53.6 °F 51.8 °F 94% 30.30 in 3.0 mi Calm Calm - 0.02 in Rain Light Rain
7:53 PM 53.1 °F 52.0 °F 96% 30.29 in 3.0 mi Calm Calm - 0.02 in Rain Light Rain
8:31 PM 53.6 °F 51.8 °F 94% 30.29 in 2.5 mi Calm Calm - 0.03 in Rain Light Rain
8:47 PM 53.6 °F 51.8 °F 94% 30.29 in 2.5 mi WSW 3.5 mph - 0.03 in Rain Light Rain
8:53 PM 53.1 °F 52.0 °F 96% 30.29 in 2.5 mi WNW 3.5 mph - 0.03 in Rain Light Rain
9:07 PM 53.6 °F 51.8 °F 94% 30.28 in 2.0 mi NW 3.5 mph - 0.01 in Rain Light Rain
9:20 PM 53.6 °F 51.8 °F 94% 30.29 in 1.5 mi NW 8.1 mph - 0.01 in Rain Light Rain
9:53 PM 53.1 °F 51.1 °F 93% 30.26 in 1.5 mi Calm Calm - 0.01 in Rain Light Rain
10:18 PM 53.6 °F 51.8 °F 94% 30.26 in 5.0 mi WSW 3.5 mph - 0.00 in   Overcast
10:53 PM 53.1 °F 51.1 °F 93% 30.24 in 5.0 mi NNW 4.6 mph - 0.00 in   Overcast
11:53 PM 52.0 °F 50.0 °F 93% 30.22 in 3.0 mi WSW 3.5 mph - N/A   Overcast